Regional Weather Roundup
Issued by NWS

Home | Current Version | Previous Version | Graphics & Text | Print | Product List | Glossary On
Versions: 1 2 3 4 5 6 7 8 9 10 11 12 13 14 15 16 17 18 19 20 21 22 23 24 25 26 27 28 29 30 31 32 33 34 35 36 37 38 39 40 41 42 43 44 45 46 47 48 49 50
000
ASUS43 KBIS 090902
RWRND

NORTH DAKOTA REGIONAL WEATHER ROUNDUP
NATIONAL WEATHER SERVICE BISMARCK ND
300 AM CST FRI DEC 09 2016

NOTE: "FAIR" INDICATES FEW OR NO CLOUDS BELOW 12,000 FEET WITH NO
SIGNIFICANT WEATHER AND/OR OBSTRUCTIONS TO VISIBILITY.


NDZ001>003-009>011-017-091000-
NORTHWEST NORTH DAKOTA

CITY           SKY/WX    TMP DP  RH WIND       PRES   REMARKS
WILLISTON      CLOUDY   -17 -22  78 CALM      30.56S
MINOT          CLOUDY   -10 -14  82 SW8       30.54F WCI -26
MINOT AFB      CLOUDY   -13 -18  78 NW7       30.55S WCI -28
$$

NDZ018>021-031>035-040>046-091000-
SOUTHWEST NORTH DAKOTA

CITY           SKY/WX    TMP DP  RH WIND       PRES   REMARKS
BISMARCK       CLOUDY    -9 -14  78 SW3       30.58F
DICKINSON      CLOUDY   -18 -23  77 CALM      30.44S
GARRISON         N/A    -13 -17  82 N7        30.53F WCI -29
HETTINGER ARPT CLOUDY   -21 -26  77 W3        30.44F
$$

NDZ004>008-012>016-024-026-027-054-091000-
NORTHEAST NORTH DAKOTA

CITY           SKY/WX    TMP DP  RH WIND       PRES   REMARKS
GRAND FORKS    FLURRIES   8   1  73 W7        30.58S WCI  -3
GRND FRKS AFB  CLOUDY     6  -1  71 NW7       30.58S WCI  -5
DEVILS LAKE    CLEAR     -4  -8  83 NW12      30.55S WCI -22
$$

NDZ022-023-025-028>030-036>039-047>053-091000-
SOUTHEAST NORTH DAKOTA

CITY           SKY/WX    TMP DP  RH WIND       PRES   REMARKS
FARGO          CLOUDY     8   2  76 W9        30.59S WCI  -5
JAMESTOWN      CLEAR     -7 -11  83 NW9       30.55S WCI -24
$$





USA.gov is the U.S. government's official web portal to all federal, state and local government web resources and services.